APG770 RPVM-RPLL

Flight info

Callsign APG770
Flight time 0h 59m
Altitude 36000
Route MULOP4P MULOP W11 CONDE CONDE5R
Aircraft A320/M-SDE3FGHIRWY/LB1

Departure

Time 2026-05-05 15:40
Airport Mactan Cebu International Airport (RPVM)

Arrival

Time 2026-05-05 16:39
Airport Ninoy Aquino International Airport (RPLL)
Time Latitude Longitude Altitude Speed Heading
2026-05-05 14:59 10.31200 123.97628 39 ft 0 kts 343°
2026-05-05 15:27 10.31186 123.97632 38 ft 3 kts 353°
2026-05-05 15:27 10.31168 123.97632 38 ft 1 kts 20°
2026-05-05 15:28 10.31167 123.97632 38 ft 0 kts 20°
2026-05-05 15:28 10.31168 123.97632 38 ft 0 kts 20°
2026-05-05 15:31 10.31160 123.97629 38 ft 0 kts 32°
2026-05-05 15:32 10.31158 123.97629 38 ft 1 kts 54°
2026-05-05 15:32 10.31154 123.97623 38 ft 0 kts 116°
2026-05-05 15:33 10.31154 123.97624 38 ft 2 kts 116°
2026-05-05 15:33 10.31137 123.97652 38 ft 8 kts 128°
2026-05-05 15:34 10.31090 123.97698 38 ft 9 kts 136°
2026-05-05 15:34 10.31046 123.97741 38 ft 8 kts 136°
2026-05-05 15:34 10.31003 123.97770 38 ft 7 kts 169°
2026-05-05 15:34 10.30952 123.97735 38 ft 13 kts 225°
2026-05-05 15:35 10.30872 123.97656 37 ft 19 kts 225°
2026-05-05 15:35 10.30760 123.97545 38 ft 25 kts 223°
2026-05-05 15:35 10.30624 123.97409 38 ft 29 kts 225°
2026-05-05 15:35 10.30527 123.97311 38 ft 17 kts 225°
2026-05-05 15:36 10.30449 123.97231 39 ft 15 kts 225°
2026-05-05 15:36 10.30367 123.97149 39 ft 19 kts 225°
2026-05-05 15:36 10.30261 123.97042 38 ft 24 kts 223°
2026-05-05 15:36 10.30132 123.96912 36 ft 28 kts 225°
2026-05-05 15:37 10.29988 123.96767 36 ft 19 kts 225°
2026-05-05 15:37 10.29895 123.96704 38 ft 13 kts 174°
2026-05-05 15:37 10.29852 123.96738 38 ft 6 kts 134°
2026-05-05 15:37 10.29822 123.96768 37 ft 6 kts 134°
2026-05-05 15:38 10.29792 123.96799 36 ft 6 kts 134°
2026-05-05 15:38 10.29774 123.96818 36 ft 0 kts 135°
2026-05-05 15:38 10.29773 123.96819 36 ft 1 kts 135°
2026-05-05 15:38 10.29751 123.96841 35 ft 8 kts 135°
2026-05-05 15:39 10.29721 123.96901 34 ft 11 kts 78°
2026-05-05 15:39 10.29788 123.96975 33 ft 18 kts 47°
2026-05-05 15:39 10.30024 123.97209 33 ft 82 kts 44°
2026-05-05 15:39 10.30566 123.97755 34 ft 138 kts 45°
2026-05-05 15:40 10.31351 123.98554 203 ft 170 kts 45°
2026-05-05 15:40 10.32187 123.99394 857 ft 170 kts 44°
2026-05-05 15:40 10.33036 124.00248 1471 ft 175 kts 45°
2026-05-05 15:40 10.33955 124.01174 1766 ft 197 kts 45°
2026-05-05 15:41 10.34981 124.02210 2073 ft 217 kts 45°
2026-05-05 15:41 10.36106 124.03347 2503 ft 234 kts 46°
2026-05-05 15:41 10.37490 124.04308 2967 ft 257 kts 18°
2026-05-05 15:41 10.39308 124.04297 3676 ft 270 kts 345°
2026-05-05 15:42 10.41026 124.03484 4506 ft 277 kts 325°
2026-05-05 15:42 10.42526 124.02223 5318 ft 282 kts 321°
2026-05-05 15:42 10.44000 124.00928 6142 ft 285 kts 320°
2026-05-05 15:42 10.45505 123.99595 6924 ft 288 kts 320°
2026-05-05 15:43 10.47030 123.98241 7705 ft 292 kts 320°
2026-05-05 15:43 10.48569 123.96878 8476 ft 295 kts 320°
2026-05-05 15:43 10.50130 123.95494 9245 ft 299 kts 320°
2026-05-05 15:43 10.51691 123.94108 9996 ft 302 kts 320°
2026-05-05 15:44 10.53311 123.92669 10378 ft 319 kts 320°
2026-05-05 15:44 10.55039 123.91139 10615 ft 339 kts 320°
2026-05-05 15:44 10.56857 123.89531 11159 ft 346 kts 320°
2026-05-05 15:44 10.58690 123.87903 11801 ft 350 kts 320°
2026-05-05 15:45 10.59910 123.86818 12224 ft 352 kts 319°
2026-05-05 15:45 10.62376 123.84620 13110 ft 357 kts 319°
2026-05-05 15:45 10.64247 123.82955 13740 ft 360 kts 319°
2026-05-05 15:45 10.66148 123.81264 14293 ft 363 kts 319°
2026-05-05 15:46 10.67434 123.80119 14664 ft 366 kts 319°
2026-05-05 15:46 10.69343 123.78422 15197 ft 369 kts 320°
2026-05-05 15:46 10.71291 123.76690 15739 ft 373 kts 320°
2026-05-05 15:46 10.73257 123.74941 16264 ft 376 kts 320°
2026-05-05 15:47 10.75241 123.73179 16784 ft 380 kts 320°
2026-05-05 15:47 10.77224 123.71417 17300 ft 384 kts 320°
2026-05-05 15:47 10.79240 123.69624 17807 ft 387 kts 320°
2026-05-05 15:47 10.81282 123.67804 18288 ft 391 kts 320°
2026-05-05 15:48 10.83346 123.65963 18725 ft 394 kts 320°
2026-05-05 15:48 10.85394 123.64137 19165 ft 397 kts 320°
2026-05-05 15:48 10.87487 123.62270 19613 ft 400 kts 320°
2026-05-05 15:48 10.89595 123.60389 20059 ft 403 kts 320°
2026-05-05 15:49 10.91723 123.58492 20500 ft 407 kts 320°
2026-05-05 15:49 10.93836 123.56612 20939 ft 409 kts 320°
2026-05-05 15:49 10.95997 123.54692 21372 ft 413 kts 320°
2026-05-05 15:49 10.98181 123.52749 21804 ft 416 kts 320°
2026-05-05 15:50 11.00384 123.50830 22239 ft 419 kts 323°
2026-05-05 15:50 11.02750 123.49140 22663 ft 422 kts 326°
2026-05-05 15:50 11.05182 123.47445 23083 ft 425 kts 326°
2026-05-05 15:50 11.07643 123.45731 23487 ft 428 kts 326°
2026-05-05 15:51 11.10121 123.44001 23837 ft 431 kts 326°
2026-05-05 15:51 11.12575 123.42286 24186 ft 432 kts 326°
2026-05-05 15:51 11.15069 123.40542 24552 ft 434 kts 326°
2026-05-05 15:51 11.17536 123.38817 24909 ft 436 kts 326°
2026-05-05 15:52 11.20055 123.37057 25256 ft 437 kts 326°
2026-05-05 15:52 11.22573 123.35296 25595 ft 439 kts 326°
2026-05-05 15:52 11.25107 123.33524 25940 ft 441 kts 326°
2026-05-05 15:52 11.27615 123.31770 26270 ft 443 kts 326°
2026-05-05 15:53 11.30167 123.29985 26591 ft 445 kts 326°
2026-05-05 15:53 11.32723 123.28195 26907 ft 446 kts 326°
2026-05-05 15:53 11.35296 123.26391 27219 ft 448 kts 326°
2026-05-05 15:53 11.37855 123.24598 27521 ft 450 kts 325°
2026-05-05 15:54 11.40443 123.22786 27811 ft 452 kts 325°
2026-05-05 15:54 11.43056 123.20956 28099 ft 454 kts 325°
2026-05-05 15:54 11.45640 123.19147 28401 ft 455 kts 325°
2026-05-05 15:54 11.48264 123.17311 28688 ft 457 kts 325°
2026-05-05 15:55 11.50898 123.15466 28966 ft 459 kts 325°
2026-05-05 15:55 11.53507 123.13638 29241 ft 460 kts 325°
2026-05-05 15:55 11.56158 123.11780 29518 ft 462 kts 325°
2026-05-05 15:55 11.58820 123.09911 29797 ft 463 kts 325°
2026-05-05 15:56 11.61493 123.08032 30058 ft 465 kts 324°
2026-05-05 15:56 11.64136 123.06172 30282 ft 466 kts 324°
2026-05-05 15:56 11.66817 123.04287 30516 ft 467 kts 324°
2026-05-05 15:56 11.69475 123.02422 30729 ft 468 kts 324°
2026-05-05 15:57 11.72173 123.00532 30954 ft 469 kts 324°
2026-05-05 15:57 11.74872 122.98641 31168 ft 470 kts 324°
2026-05-05 15:57 11.77574 122.96745 31391 ft 471 kts 324°
2026-05-05 15:57 11.80243 122.94872 31698 ft 469 kts 324°
2026-05-05 15:58 11.82953 122.92965 32025 ft 467 kts 324°
2026-05-05 15:58 11.85601 122.91098 32331 ft 466 kts 324°
2026-05-05 15:58 11.88275 122.89214 32641 ft 464 kts 324°
2026-05-05 15:58 11.90909 122.87358 32952 ft 463 kts 324°
2026-05-05 15:59 11.93573 122.85485 33256 ft 462 kts 324°
2026-05-05 15:59 11.96226 122.83620 33576 ft 461 kts 324°
2026-05-05 15:59 11.98852 122.81775 33887 ft 460 kts 324°
2026-05-05 15:59 12.01489 122.79923 34156 ft 459 kts 324°
2026-05-05 16:00 12.04123 122.78070 34418 ft 458 kts 323°
2026-05-05 16:00 12.06714 122.76244 34680 ft 457 kts 323°
2026-05-05 16:00 12.09339 122.74394 34925 ft 456 kts 323°
2026-05-05 16:00 12.11956 122.72549 35179 ft 455 kts 323°
2026-05-05 16:01 12.14556 122.70715 35425 ft 454 kts 323°
2026-05-05 16:01 12.17156 122.68884 35666 ft 453 kts 323°
2026-05-05 16:01 12.19719 122.67077 35857 ft 452 kts 323°
2026-05-05 16:02 12.24883 122.63432 35920 ft 446 kts 323°
2026-05-05 16:02 12.29984 122.59840 35920 ft 445 kts 323°
2026-05-05 16:03 12.35051 122.56259 35920 ft 445 kts 323°
2026-05-05 16:03 12.40126 122.52663 35920 ft 444 kts 323°
2026-05-05 16:04 12.45231 122.49052 35925 ft 445 kts 323°
2026-05-05 16:04 12.50297 122.45467 35921 ft 444 kts 323°
2026-05-05 16:05 12.55395 122.41860 35917 ft 444 kts 323°
2026-05-05 16:05 12.60460 122.38278 35916 ft 444 kts 323°
2026-05-05 16:06 12.65551 122.34677 35911 ft 444 kts 323°
2026-05-05 16:06 12.70608 122.31092 35911 ft 444 kts 323°
2026-05-05 16:07 12.75699 122.27473 35913 ft 444 kts 323°
2026-05-05 16:07 12.80758 122.23893 35913 ft 444 kts 323°
2026-05-05 16:08 12.85824 122.20304 35914 ft 444 kts 323°
2026-05-05 16:08 12.90893 122.16702 35913 ft 444 kts 323°
2026-05-05 16:09 12.95984 122.13079 35900 ft 445 kts 323°
2026-05-05 16:09 13.01073 122.09462 35890 ft 446 kts 323°
2026-05-05 16:09 13.03613 122.07655 35545 ft 444 kts 323°
2026-05-05 16:10 13.06179 122.05830 34223 ft 450 kts 323°
2026-05-05 16:10 13.08756 122.03985 33327 ft 447 kts 323°
2026-05-05 16:10 13.11236 122.02212 33106 ft 436 kts 324°
2026-05-05 16:10 13.13718 122.00452 32711 ft 430 kts 324°
2026-05-05 16:11 13.16171 121.98715 32250 ft 426 kts 324°
2026-05-05 16:11 13.23399 121.93576 30834 ft 418 kts 324°
2026-05-05 16:12 13.25760 121.91896 30383 ft 416 kts 324°
2026-05-05 16:12 13.30495 121.88522 29415 ft 411 kts 324°
2026-05-05 16:13 13.37466 121.83546 28008 ft 403 kts 324°
2026-05-05 16:13 13.39776 121.81899 27570 ft 401 kts 324°
2026-05-05 16:13 13.42060 121.80272 27107 ft 398 kts 324°
2026-05-05 16:14 13.46575 121.77046 26237 ft 393 kts 324°
2026-05-05 16:14 13.51035 121.73854 25375 ft 389 kts 324°
2026-05-05 16:15 13.55463 121.70680 24534 ft 385 kts 324°
2026-05-05 16:15 13.59823 121.67567 23709 ft 381 kts 324°
2026-05-05 16:16 13.64134 121.64490 22796 ft 377 kts 324°
2026-05-05 16:16 13.68401 121.61420 21998 ft 370 kts 322°
2026-05-05 16:17 13.72233 121.57962 21208 ft 364 kts 318°
2026-05-05 16:17 13.74121 121.56234 20817 ft 362 kts 318°
2026-05-05 16:18 13.77856 121.52819 20068 ft 357 kts 318°
2026-05-05 16:18 13.79711 121.51123 19696 ft 356 kts 318°
2026-05-05 16:18 13.83371 121.47773 18999 ft 351 kts 318°
2026-05-05 16:19 13.85197 121.46099 18651 ft 349 kts 319°
2026-05-05 16:19 13.87011 121.44440 18314 ft 347 kts 319°
2026-05-05 16:19 13.90589 121.41169 17567 ft 343 kts 319°
2026-05-05 16:20 13.94140 121.37917 16846 ft 339 kts 319°
2026-05-05 16:20 13.97623 121.34718 16146 ft 335 kts 319°
2026-05-05 16:21 14.01097 121.31529 15640 ft 333 kts 319°
2026-05-05 16:22 14.05473 121.26119 14936 ft 330 kts 293°
2026-05-05 16:22 14.07120 121.21727 14480 ft 328 kts 291°
2026-05-05 16:23 14.08765 121.17331 14027 ft 327 kts 291°
2026-05-05 16:23 14.09578 121.15163 13797 ft 326 kts 291°
2026-05-05 16:23 14.11210 121.10801 13287 ft 324 kts 291°
2026-05-05 16:24 14.12010 121.08658 13047 ft 323 kts 291°
2026-05-05 16:24 14.12817 121.06499 12801 ft 322 kts 291°
2026-05-05 16:24 14.14422 121.02201 12305 ft 320 kts 291°
2026-05-05 16:25 14.15208 121.00090 12059 ft 319 kts 291°
2026-05-05 16:25 14.15785 120.98558 11882 ft 315 kts 291°
2026-05-05 16:25 14.16605 120.96512 11647 ft 310 kts 298°
2026-05-05 16:26 14.19431 120.93332 11168 ft 296 kts 330°
2026-05-05 16:26 14.22923 120.91264 10703 ft 286 kts 332°
2026-05-05 16:27 14.24632 120.90228 10469 ft 283 kts 327°
2026-05-05 16:27 14.25916 120.88723 10243 ft 281 kts 294°
2026-05-05 16:27 14.26230 120.86775 10014 ft 275 kts 261°
2026-05-05 16:27 14.25576 120.85006 9863 ft 263 kts 235°
2026-05-05 16:28 14.24611 120.83437 9740 ft 254 kts 238°
2026-05-05 16:28 14.23745 120.81884 9597 ft 245 kts 239°
2026-05-05 16:28 14.22939 120.80387 9470 ft 239 kts 239°
2026-05-05 16:28 14.22162 120.78880 9336 ft 238 kts 248°
2026-05-05 16:29 14.21932 120.77214 9208 ft 236 kts 278°
2026-05-05 16:29 14.22491 120.75635 9081 ft 234 kts 308°
2026-05-05 16:29 14.23647 120.74526 8889 ft 229 kts 333°
2026-05-05 16:29 14.25039 120.73712 8579 ft 230 kts 333°
2026-05-05 16:30 14.26440 120.72895 8239 ft 232 kts 333°
2026-05-05 16:30 14.27828 120.72086 7928 ft 229 kts 333°
2026-05-05 16:30 14.29212 120.71279 7554 ft 227 kts 333°
2026-05-05 16:30 14.30601 120.70533 7192 ft 221 kts 344°
2026-05-05 16:31 14.32072 120.70408 6895 ft 211 kts 13°
2026-05-05 16:31 14.33402 120.71004 6416 ft 211 kts 40°
2026-05-05 16:31 14.34308 120.72197 5907 ft 212 kts 61°
2026-05-05 16:31 14.35035 120.73510 5566 ft 207 kts 61°
2026-05-05 16:32 14.35734 120.74770 5294 ft 200 kts 61°
2026-05-05 16:32 14.36418 120.75998 5039 ft 194 kts 61°
2026-05-05 16:32 14.37080 120.77185 4800 ft 188 kts 62°
2026-05-05 16:32 14.37717 120.78328 4564 ft 182 kts 62°
2026-05-05 16:33 14.38342 120.79450 4333 ft 177 kts 62°
2026-05-05 16:33 14.38948 120.80538 4097 ft 172 kts 62°
2026-05-05 16:33 14.39532 120.81586 3886 ft 168 kts 62°
2026-05-05 16:33 14.40111 120.82625 3675 ft 164 kts 63°
2026-05-05 16:34 14.40671 120.83630 3460 ft 159 kts 62°
2026-05-05 16:34 14.41033 120.84280 3339 ft 156 kts 63°
2026-05-05 16:34 14.41737 120.85544 3084 ft 149 kts 62°
2026-05-05 16:34 14.42075 120.86151 2949 ft 143 kts 63°
2026-05-05 16:35 14.42562 120.87025 2784 ft 139 kts 63°
2026-05-05 16:35 14.43042 120.87889 2607 ft 137 kts 62°
2026-05-05 16:35 14.43517 120.88743 2427 ft 137 kts 62°
2026-05-05 16:35 14.43988 120.89589 2249 ft 137 kts 61°
2026-05-05 16:36 14.44461 120.90440 2074 ft 137 kts 62°
2026-05-05 16:36 14.44938 120.91296 1900 ft 137 kts 61°
2026-05-05 16:36 14.45407 120.92139 1721 ft 137 kts 61°
2026-05-05 16:36 14.45882 120.92994 1561 ft 136 kts 62°
2026-05-05 16:37 14.46352 120.93838 1372 ft 136 kts 62°
2026-05-05 16:37 14.46823 120.94684 1195 ft 136 kts 61°
2026-05-05 16:37 14.47291 120.95526 1042 ft 137 kts 62°
2026-05-05 16:37 14.47770 120.96387 867 ft 138 kts 61°
2026-05-05 16:38 14.48294 120.97329 671 ft 138 kts 63°
2026-05-05 16:38 14.48774 120.98193 506 ft 137 kts 63°
2026-05-05 16:38 14.49249 120.99046 296 ft 137 kts 62°
2026-05-05 16:38 14.49724 120.99901 125 ft 137 kts 63°
2026-05-05 16:39 14.50168 121.00700 64 ft 112 kts 59°
2026-05-05 16:39 14.50471 121.01242 66 ft 63 kts 60°
2026-05-05 16:39 14.50604 121.01480 66 ft 21 kts 60°
2026-05-05 16:39 14.50684 121.01616 68 ft 23 kts 57°
2026-05-05 16:40 14.50791 121.01738 68 ft 16 kts 37°
2026-05-05 16:40 14.50833 121.01771 65 ft 0 kts 37°
2026-05-05 16:41 14.50852 121.01784 68 ft 6 kts 34°
2026-05-05 16:41 14.50889 121.01785 62 ft 8 kts 332°
2026-05-05 16:42 14.50936 121.01737 68 ft 12 kts 312°
2026-05-05 16:42 14.50946 121.01660 62 ft 11 kts 232°
2026-05-05 16:42 14.50894 121.01573 66 ft 17 kts 240°
2026-05-05 16:42 14.50832 121.01463 68 ft 18 kts 240°
2026-05-05 16:43 14.50771 121.01353 62 ft 17 kts 239°
2026-05-05 16:43 14.50745 121.01303 67 ft 0 kts 242°
2026-05-05 16:43 14.50744 121.01301 68 ft 3 kts 242°
2026-05-05 16:43 14.50760 121.01271 63 ft 6 kts 332°
2026-05-05 16:44 14.50789 121.01253 65 ft 4 kts 330°
2026-05-05 16:44 14.50802 121.01245 64 ft 0 kts 330°
2026-05-05 16:44 14.50803 121.01245 64 ft 1 kts 330°
2026-05-05 16:44 14.50808 121.01242 65 ft 0 kts 330°
2026-05-05 16:45 14.50809 121.01241 65 ft 0 kts 330°